Theta_e
324 324 323 322 322 322 321 320 319 320 321 321 322 322 322 323 321 323 324 325 325 325 324 325 326 326 326 325 324 324 322 322 321 322 321 320 320 319 317 316 315 315
323 322 321 320 319 319 319 319 320 320 320 320 321 322 322 320 321 322 323 323 323 323 324 324 325 325 325 324 323 323 322 321 320 321 321 320 320 319 318 316 315 315
319 318 319 319 319 318 318 318 319 320 320 320 320 320 320 319 320 320 322 322 322 322 324 324 324 323 325 325 323 321 320 319 320 319 318 319 318 317 316 315 313 313
316 318 319 318 317 318 317 317 317 317 317 318 318 318 317 316 318 319 320 315 321 321 323 324 323 321 320 321 323 321 319 319 319 317 317 315 315 316 316 314 311 308
314 315 316 316 316 316 315 316 316 314 313 314 312 312 312 312 315 316 317 317 319 320 320 321 322 322 320 319 317 318 319 319 316 315 315 314 312 312 310 308 304 302
308 309 310 312 311 312 312 312 311 310 310 311 311 309 311 312 314 316 315 315 315 317 316 316 316 316 319 320 318 316 311 307 306 307 306 305 302 302 305 305 303 299
306 307 307 305 307 308 309 309 310 307 307 307 306 311 309 309 311 314 316 316 316 314 315 315 316 315 313 314 317 318 314 312 309 309 308 303 302 300 300 302 302 301
302 300 303 304 304 303 304 304 304 304 304 304 308 303 306 308 309 310 309 311 314 315 315 313 311 314 313 314 312 309 307 308 307 307 306 304 303 303 300 300 299 297
300 299 301 300 302 301 302 301 300 301 302 307 304 305 305 308 307 307 308 309 310 309 311 309 311 310 308 308 309 310 309 306 305 306 306 305 303 303 301 298 297 296
293 291 295 296 302 301 303 302 301 301 301 305 306 306 307 304 304 306 306 305 305 305 305 307 308 308 307 306 309 308 307 305 301 301 301 301 302 301 298 298 299 297
290 291 293 293 296 298 301 299 298 298 298 300 301 303 303 303 303 302 304 304 306 307 307 306 305 305 305 305 304 304 305 304 303 302 301 300 300 299 296 297 297 297
291 293 293 294 296 298 298 298 298 297 297 297 298 303 300 299 301 300 299 302 301 303 303 303 302 302 303 304 304 302 301 301 300 301 300 300 299 297 296 295 295 295
297 298 298 298 297 298 299 298 297 296 298 297 294 297 298 298 297 297 295 297 298 298 299 299 299 298 298 298 298 298 298 297 295 295 294 294 295 295 295 294 294 294
296 298 298 297 298 298 296 296 297 296 295 293 293 295 295 295 296 296 294 294 295 296 296 296 295 295 296 296 296 296 295 294 294 295 294 293 292 291 291 292 292 291
295 295 296 295 293 294 293 292 291 289 289 290 292 292 293 292 292 293 293 294 293 293 293 293 295 296 296 296 296 295 295 296 295 294 293 293 292 291 290 290 289 289
296 294 294 293 292 292 290 289 288 288 288 289 289 290 290 290 291 291 292 291 292 291 291 292 293 295 293 293 294 296 295 295 293 292 292 292 290 289 288 288 288 287
295 293 291 292 291 289 288 289 289 288 288 288 288 289 289 289 290 291 291 290 291 290 290 290 292 294 292 294 295 295 294 292 292 291 290 289 289 289 288 287 286 285
293 291 290 290 289 289 289 288 288 288 287 287 288 288 288 288 289 290 290 290 290 290 290 289 289 291 293 293 294 294 293 292 290 290 289 289 288 288 287 286 285 284
291 291 290 289 289 289 289 288 288 287 287 287 288 288 288 289 289 289 289 289 290 290 289 288 288 290 293 293 293 294 293 291 290 290 289 288 287 287 286 285 284 284
291 290 289 289 289 288 288 288 288 288 287 288 287 287 287 287 288 288 288 289 289 289 289 289 289 289 292 292 292 293 293 292 288 288 287 287 286 285 285 284 284 284
291 290 289 289 288 288 288 288 288 287 287 286 287 287 287 287 287 287 288 287 288 288 289 288 288 290 291 292 292 293 293 291 287 287 286 285 285 284 284 284 284 283
291 290 289 289 288 288 287 287 287 287 287 286 286 286 286 286 286 286 286 286 287 287 288 288 286 289 290 291 292 292 293 288 286 286 285 285 284 284 284 284 283 283
291 290 289 289 288 288 287 287 287 287 286 286 286 286 286 286 286 286 286 286 286 286 287 287 286 288 290 290 291 292 291 286 286 285 285 285 284 284 284 283 283 282
291 291 289 288 287 287 287 286 287 286 286 286 286 286 286 285 286 286 286 286 286 286 286 286 286 286 288 290 290 291 289 286 286 285 285 285 284 282 283 282 282 282
291 290 289 288 288 287 287 287 286 286 286 286 286 286 286 286 286 286 285 285 285 286 285 286 286 285 288 289 290 290 289 286 286 285 284 284 283 282 282 281 281 282
290 289 289 288 288 287 287 287 286 286 286 286 286 286 285 285 285 286 285 285 285 285 285 285 285 285 286 289 289 290 290 286 285 285 284 284 283 282 281 281 281 281
Wind_Speed
11 9 10 9 9 8 7 8 7 8 8 7 9 8 9 8 7 9 10 9 9 9 8 7 7 7 7 7 9 9 8 9 8 8 9 9 9 10 9 8 7 7
10 9 8 7 7 7 7 7 8 9 9 8 8 8 8 7 9 9 9 9 8 9 8 7 7 7 7 6 7 8 8 7 8 7 9 10 9 9 9 8 8 7
6 7 8 8 9 8 8 7 8 8 8 9 9 8 8 7 7 7 7 8 8 7 7 7 7 7 9 9 7 7 7 6 8 7 8 9 7 6 6 6 6 8
6 8 8 8 8 8 8 8 8 6 6 7 8 7 6 5 6 7 7 6 6 6 7 7 7 7 5 7 9 9 7 7 7 7 8 5 6 7 9 7 7 6
7 7 6 6 7 7 6 7 7 5 5 5 4 4 4 4 6 6 6 6 6 6 6 6 7 8 9 7 5 6 8 11 9 7 7 9 9 9 7 6 6 5
4 5 5 5 5 5 5 5 4 4 3 3 4 3 4 4 5 6 6 7 6 6 6 5 5 4 6 10 9 8 5 4 3 5 4 4 3 3 4 5 6 6
3 2 1 1 1 1 1 1 1 1 1 2 1 2 3 4 5 6 6 7 7 7 6 6 7 8 6 6 8 11 9 9 8 9 10 7 6 5 4 6 8 8
1 2 3 3 2 3 2 2 1 1 0 0 0 1 1 3 3 4 4 5 6 7 8 9 6 5 6 9 9 6 5 4 6 9 8 8 9 10 8 7 7 7
2 2 2 1 1 2 2 2 2 2 0 1 1 2 1 2 3 3 3 4 4 4 4 4 5 6 5 5 5 7 8 8 8 9 11 11 11 11 9 6 6 8
1 1 0 1 1 1 1 1 2 1 1 1 1 1 1 1 1 3 4 4 4 4 4 4 5 7 7 6 8 9 8 7 4 4 4 5 8 8 9 10 11 9
1 1 1 1 1 0 0 2 3 3 2 2 1 1 1 2 3 2 2 3 4 5 6 6 6 6 6 7 6 6 8 9 9 9 8 8 8 9 10 10 10 11
2 2 1 1 0 1 1 1 2 3 2 1 1 1 1 0 1 2 3 5 5 5 5 5 4 4 5 7 7 6 5 5 6 7 9 10 9 8 8 9 10 10
1 0 0 0 1 1 2 3 4 2 1 2 1 1 1 2 2 3 2 1 3 2 3 3 3 3 4 4 4 4 4 4 4 4 4 4 5 7 9 9 9 8
2 1 1 2 1 2 3 3 2 1 0 0 0 1 1 1 1 2 1 1 1 1 2 2 3 4 4 4 4 4 5 5 5 6 6 6 5 3 3 4 5 6
3 4 4 4 4 3 2 2 2 1 1 1 0 0 0 0 0 1 1 1 1 2 2 3 4 5 5 5 5 5 5 6 6 7 7 7 6 6 5 6 5 5
5 4 4 3 3 3 3 3 2 2 2 2 1 1 1 1 1 1 1 2 2 2 1 2 3 4 5 7 7 5 5 5 4 5 6 6 6 5 4 4 4 5
5 4 4 4 3 3 3 3 3 3 2 2 2 1 1 0 1 1 1 1 1 2 3 3 3 3 4 5 7 7 4 4 5 4 4 4 5 6 7 5 4 3
5 5 4 4 3 3 3 3 3 3 3 2 2 1 1 1 0 0 0 0 1 1 2 3 3 4 4 5 6 6 4 3 2 3 3 3 4 4 3 4 4 3
5 5 4 4 4 4 4 4 4 3 3 3 2 2 2 1 0 0 0 0 0 1 2 2 2 3 3 3 4 3 3 2 1 1 2 3 2 2 2 3 3 4
6 5 5 5 5 5 5 4 4 4 3 3 3 3 2 2 1 0 0 0 0 0 1 1 1 2 1 2 2 3 3 3 1 0 0 0 0 0 1 2 4 5
7 6 6 6 5 5 5 4 4 3 3 2 2 2 2 2 2 1 0 0 0 0 1 0 0 1 0 1 3 4 4 5 2 2 1 1 1 1 2 3 5 4
7 7 6 6 6 5 4 4 3 3 3 3 2 2 2 2 2 2 2 1 1 1 1 0 0 1 2 2 4 5 7 5 4 4 4 4 4 5 4 5 6 6
7 8 7 7 5 5 4 4 4 3 3 3 4 3 3 2 2 1 1 1 1 0 0 0 1 1 1 2 2 5 5 3 3 3 4 5 5 5 6 6 6 6
7 7 8 6 6 5 5 4 3 3 3 3 4 4 3 2 2 2 2 2 2 1 0 0 1 0 2 2 3 5 5 4 3 3 3 2 2 4 4 5 6 9
7 7 6 6 6 5 5 6 5 5 3 3 3 4 3 3 3 4 3 3 3 3 4 3 2 2 5 5 6 6 6 4 4 4 4 4 4 4 4 5 5 7
7 7 6 7 6 5 4 5 4 4 4 5 4 4 4 3 3 3 4 3 3 3 3 3 2 2 3 6 6 7 8 5 4 5 6 6 5 6 5 4 6 6
Wind_Direction
213 211 217 218 224 222 216 214 211 214 217 213 216 217 215 217 207 211 214 214 216 218 218 218 217 224 224 217 213 216 213 211 213 209 209 207 215 211 208 205 205 203
209 207 210 210 217 213 215 208 212 213 217 214 216 219 221 213 214 208 213 218 220 224 224 223 223 227 228 225 218 216 213 209 214 202 209 208 212 210 213 207 205 206
202 202 203 209 213 214 211 209 211 215 216 217 216 214 222 214 213 209 212 213 216 220 222 219 215 222 226 221 222 220 214 212 209 199 208 207 200 205 217 213 214 210
207 204 204 211 211 216 213 214 220 219 222 228 226 223 213 211 207 208 210 204 207 208 212 212 209 200 222 244 219 206 210 213 206 197 209 212 209 209 213 208 214 210
203 209 211 213 215 215 211 217 225 226 229 240 263 237 208 198 197 200 198 200 201 207 206 213 215 210 203 216 242 247 214 204 199 199 207 214 212 206 198 177 178 179
206 204 209 214 219 211 220 223 231 234 245 261 244 240 223 201 196 192 190 192 198 200 207 206 221 253 231 211 211 225 228 250 226 190 194 197 189 179 158 171 168 168
178 142 119 67 68 30 237 269 274 189 186 208 165 205 201 199 198 199 196 196 193 196 198 211 206 212 228 255 236 218 206 200 197 195 191 179 163 181 181 179 184 182
95 56 58 50 47 33 38 11 350 359 225 74 139 258 164 190 204 207 199 196 202 203 198 198 208 235 229 218 215 237 244 228 199 189 182 181 184 187 186 184 164 154
59 36 43 55 42 15 357 339 316 297 269 256 225 239 220 186 206 203 203 200 204 216 224 233 224 220 213 217 228 218 204 193 191 194 197 195 194 190 176 159 162 180
57 30 42 5 279 296 336 331 328 328 353 7 314 327 288 257 227 242 246 244 248 253 240 223 215 222 222 222 220 210 210 211 209 228 228 217 206 177 167 178 189 185
74 73 81 352 280 333 14 20 13 2 17 22 9 320 312 332 312 333 301 260 233 229 229 227 228 221 220 223 226 220 212 201 195 194 189 185 189 191 188 185 185 198
156 112 92 103 114 68 45 29 11 24 11 37 63 308 300 301 242 235 205 222 224 229 227 234 233 230 228 225 222 219 220 218 207 199 195 193 195 195 189 187 189 194
139 107 71 55 52 13 351 311 292 289 351 356 44 81 170 236 247 256 280 241 267 264 244 240 238 226 233 237 228 207 205 204 199 207 217 218 211 201 195 190 192 189
164 176 221 266 252 229 216 214 227 255 302 139 142 167 198 241 260 253 272 188 258 228 230 205 208 213 218 217 209 202 195 200 199 201 197 197 197 203 213 217 203 191
177 198 190 181 171 155 138 138 133 125 99 80 76 45 48 4 159 185 204 220 222 208 206 193 200 217 212 204 203 205 197 200 198 196 193 193 194 197 195 197 200 195
188 175 158 154 156 160 158 143 129 120 110 102 100 122 143 163 166 158 186 214 217 246 223 226 236 243 235 223 214 206 205 207 199 202 199 196 191 190 199 205 207 198
165 166 155 170 170 145 143 137 139 130 114 109 100 89 103 87 121 142 215 225 223 224 242 250 263 270 256 232 227 216 202 198 200 207 196 193 194 191 198 196 198 189
166 163 165 166 150 156 152 151 134 124 114 111 111 93 67 81 68 111 45 358 308 300 273 284 286 300 261 247 233 226 207 200 195 199 199 208 209 205 196 184 182 166
159 164 167 159 166 158 153 144 136 127 130 134 144 145 102 104 120 105 58 45 38 310 305 312 313 329 307 281 256 236 208 175 181 188 190 221 220 224 191 173 162 171
159 162 164 166 159 156 152 149 145 156 159 156 136 128 130 125 113 113 92 80 58 345 299 319 347 357 304 261 242 226 192 164 88 91 29 354 337 265 205 190 190 186
160 165 164 161 161 159 155 158 157 152 150 151 133 134 135 153 152 124 93 104 100 141 223 310 37 67 159 218 210 185 173 145 112 108 119 123 119 158 200 207 199 194
163 167 164 161 161 161 158 156 153 150 154 146 117 103 99 107 101 116 140 148 156 158 151 268 33 144 198 208 193 178 168 151 145 151 164 168 172 176 185 188 185 184
166 163 164 163 164 159 161 158 154 151 154 147 126 135 133 132 147 139 142 133 119 119 154 45 54 32 206 203 193 181 161 155 158 167 181 187 189 183 189 186 188 184
167 163 161 162 159 167 165 159 150 149 161 159 145 146 137 157 156 120 115 125 133 113 103 96 60 92 168 193 181 188 169 175 175 183 203 192 188 187 190 192 188 178
162 159 159 157 167 170 163 161 166 168 158 146 134 135 151 162 151 143 148 148 159 168 164 165 179 182 190 189 188 189 180 174 172 179 191 193 185 190 184 184 180 183
161 160 159 161 169 165 162 155 151 142 148 141 141 141 147 153 161 157 152 166 166 169 176 183 188 194 188 202 200 200 190 177 177 183 204 199 190 192 192 196 188 187